Tarboro, NC

10:30 AM EDT on September 25, 2016 (GMT -0400)
Tarboro-edgecombe

Weather History for KETC - January, 2013

Change the Weather History Date:

Thursday, January 17, 2013

  Actual Average Record
Temperature  
Mean Temperature 44 °F -  
Max Temperature 52 °F 51 °F 73 °F (1953)
Min Temperature 34 °F 24 °F 3 °F (1977)
Degree Days  
Heating Degree Days 20    
Moisture  
Dew Point 46 °F    
Average Humidity 93    
Maximum Humidity 95    
Minimum Humidity 89    
Precipitation  
Precipitation 0.46 in - - ()
Sea Level Pressure  
Sea Level Pressure 29.99 in    
Wind  
Wind Speed 5 mph (NNE)    
Max Wind Speed 18 mph    
Max Gust Speed 29 mph    
Visibility 6 miles    
Events Rain , Snow    
Averages and records for this station are not official NWS values.
T = Trace of Precipitation, MM = Missing Value Source: NWS Daily Summary

Daily Weather History Graph

Daily Weather History Graph

Search for Another Location

Airport or City:

Trip Planner

Search our weather history database for the weather conditions in past years. The results will help you decide how hot, cold, wet, or windy it might be!

Date:

Astronomy

Jan. 17, 2013 Rise Set
Actual Time 7:19 AM EST 5:21 PM EST
Civil Twilight 6:51 AM EST 5:49 PM EST
Nautical Twilight 6:20 AM EST 6:21 PM EST
Astronomical Twilight 5:49 AM EST 6:51 PM EST
Moon 10:39 AM EST (1/17) 11:56 PM EST (1/17)
Length of Visible Light 10h 58m
Length of Day
10h 02m
Waxing Crescent, 37% of the Moon is Illuminated
Jan 17
Waxing Crescent
Jan 18
First Quarter
Jan 26
Full
Feb 3
Last Quarter
Feb 10
New

Hourly Weather History & Observations

Time (EST) Temp. Windchill Dew Point Humidity Pressure Visibility Wind Dir Wind Speed Gust Speed Precip Events Conditions
12:15 AM 51.1 °F - 49.8 °F 95% 30.00 in 7.0 mi Calm Calm - N/A   Overcast
12:35 AM 51.3 °F - 50.0 °F 95% 29.99 in 7.0 mi Calm Calm - N/A   Overcast
12:55 AM 51.3 °F - 50.0 °F 95% 29.99 in 7.0 mi Calm Calm - N/A   Overcast
1:35 AM 51.6 °F - 50.2 °F 95% 29.99 in 7.0 mi Calm Calm - N/A   Overcast
1:55 AM 51.8 °F - 50.4 °F 95% 29.99 in 7.0 mi Calm Calm - N/A   Overcast
2:15 AM 52.0 °F - 50.4 °F 94% 29.99 in 7.0 mi Calm Calm - N/A   Overcast
2:35 AM 52.2 °F - 50.5 °F 94% 29.98 in 7.0 mi Calm Calm - N/A   Overcast
2:55 AM 52.2 °F - 50.5 °F 94% 29.99 in 7.0 mi North 4.6 mph - N/A   Overcast
3:15 AM 52.0 °F - 50.4 °F 94% 29.98 in 7.0 mi North 5.8 mph - N/A   Overcast
3:35 AM 51.8 °F - 50.2 °F 94% 29.99 in 7.0 mi North 3.5 mph - N/A   Light Drizzle
3:55 AM 51.8 °F - 50.0 °F 94% 29.98 in 10.0 mi North 3.5 mph - N/A   Overcast
4:15 AM 51.4 °F - 50.0 °F 95% 29.98 in 10.0 mi NNE 3.5 mph - N/A   Overcast
4:35 AM 51.3 °F - 49.8 °F 95% 29.97 in 10.0 mi NNE 4.6 mph - N/A   Overcast
4:55 AM 51.1 °F - 49.5 °F 94% 29.97 in 7.0 mi NE 3.5 mph - N/A   Overcast
5:15 AM 51.1 °F - 49.5 °F 94% 29.97 in 7.0 mi NE 4.6 mph - N/A   Overcast
5:35 AM 50.9 °F - 49.3 °F 94% 29.97 in 7.0 mi NNE 3.5 mph - N/A   Overcast
5:55 AM 50.9 °F - 49.3 °F 94% 29.98 in 5.0 mi Calm Calm - N/A   Overcast
6:15 AM 50.9 °F - 49.3 °F 94% 29.98 in 4.0 mi Calm Calm - N/A   Overcast
6:35 AM 50.9 °F - 49.3 °F 94% 30.00 in 2.5 mi North 5.8 mph - N/A   Overcast
6:55 AM 50.7 °F - 49.3 °F 95% 30.01 in 3.0 mi North 4.6 mph - N/A   Overcast
7:15 AM 50.4 °F - 49.1 °F 95% 30.01 in 2.5 mi NNE 4.6 mph - 0.01 in   Drizzle
7:35 AM 50.2 °F - 48.7 °F 95% 30.02 in 5.0 mi NNE 4.6 mph - 0.01 in   Overcast
7:55 AM 50.2 °F - 48.7 °F 95% 30.02 in 7.0 mi Calm Calm - 0.01 in   Overcast
8:15 AM 50.4 °F - 48.7 °F 94% 30.02 in 10.0 mi NE 4.6 mph - 0.01 in   Overcast
8:35 AM 50.4 °F - 48.7 °F 94% 30.03 in 7.0 mi NNE 3.5 mph - 0.01 in   Overcast
8:55 AM 50.5 °F - 48.7 °F 94% 30.03 in 4.0 mi NE 5.8 mph - 0.01 in   Overcast
9:15 AM 50.7 °F - 48.9 °F 94% 30.03 in 3.0 mi NE 5.8 mph - N/A   Overcast
9:35 AM 50.9 °F - 49.1 °F 94% 30.05 in 5.0 mi NNE 5.8 mph - N/A   Overcast
9:55 AM 50.9 °F - 49.1 °F 94% 30.04 in 7.0 mi NNE 6.9 mph - N/A   Overcast
10:15 AM 51.1 °F - 49.1 °F 93% 30.04 in 5.0 mi NNE 10.4 mph - N/A   Overcast
10:35 AM 51.1 °F - 49.3 °F 94% 30.04 in 3.0 mi NNE 8.1 mph - N/A Rain Rain
10:55 AM 51.3 °F - 49.5 °F 94% 30.04 in 5.0 mi NE 6.9 mph - 0.01 in   Overcast
11:15 AM 51.4 °F - 49.3 °F 92% 30.03 in 5.0 mi NE 4.6 mph - N/A Rain Light Rain
11:35 AM 51.4 °F - 49.3 °F 92% 30.02 in 5.0 mi NE 5.8 mph - N/A   Overcast
11:55 AM 51.3 °F - 49.1 °F 92% 30.01 in 10.0 mi NNE 8.1 mph - N/A   Overcast
12:15 PM 50.9 °F - 48.7 °F 92% 30.00 in 7.0 mi NE 10.4 mph - 0.01 in   Drizzle
12:35 PM 50.9 °F - 48.4 °F 91% 29.99 in 7.0 mi NE 11.5 mph 16.1 mph 0.01 in   Overcast
12:55 PM 50.2 °F - 47.8 °F 92% 29.98 in 7.0 mi NNE 9.2 mph - 0.01 in   Overcast
1:15 PM 49.8 °F - 47.5 °F 92% 29.96 in 10.0 mi NE 12.7 mph 16.1 mph N/A   Overcast
1:35 PM 49.3 °F - 47.3 °F 93% 29.96 in 10.0 mi NE 9.2 mph 18.4 mph N/A   Overcast
1:55 PM 48.7 °F - 46.4 °F 92% 29.96 in 10.0 mi ENE 11.5 mph 18.4 mph N/A   Overcast
2:15 PM 48.4 °F - 45.9 °F 91% 29.96 in 7.0 mi ENE 12.7 mph 18.4 mph N/A   Overcast
2:35 PM 48.0 °F - 45.5 °F 91% 29.97 in 4.0 mi NE 9.2 mph 18.4 mph N/A   Overcast
2:55 PM 47.5 °F - 45.5 °F 93% 29.97 in 2.5 mi ENE 10.4 mph 17.3 mph N/A   Overcast
3:15 PM 47.3 °F - 45.3 °F 93% 29.97 in 2.0 mi NE 9.2 mph 18.4 mph N/A   Light Drizzle
3:35 PM 46.8 °F - 44.8 °F 93% 29.97 in 2.0 mi NE 16.1 mph 21.9 mph N/A Rain Light Rain
3:55 PM 45.9 °F 39.7 °F 43.7 °F 92% 29.97 in 2.5 mi NE 13.8 mph 20.7 mph 0.01 in Rain Light Rain
4:15 PM 45.1 °F 39.1 °F 43.0 °F 92% 29.98 in 5.0 mi NNE 12.7 mph 19.6 mph N/A Rain Light Rain
4:55 PM 43.7 °F 36.0 °F 41.2 °F 91% 29.99 in 4.0 mi NE 17.3 mph 28.8 mph N/A   Overcast
5:55 PM 42.1 °F 35.2 °F 39.7 °F 91% 29.98 in 7.0 mi NE 12.7 mph 18.4 mph 0.01 in Rain Light Rain
6:15 PM 42.1 °F 34.2 °F 39.7 °F 91% 29.96 in 7.0 mi NE 16.1 mph 26.5 mph N/A Rain Light Rain
6:35 PM 41.7 °F 33.7 °F 38.8 °F 89% 29.97 in 7.0 mi NNE 16.1 mph 27.6 mph 0.01 in Rain Light Rain
6:55 PM 41.2 °F 33.4 °F 38.5 °F 90% 29.97 in 10.0 mi NNE 15.0 mph 21.9 mph 0.01 in   Overcast
7:35 PM 40.6 °F 35.4 °F 38.3 °F 91% 30.01 in 7.0 mi North 8.1 mph 19.6 mph 0.04 in Rain Light Rain
8:15 PM 40.3 °F 33.0 °F 38.1 °F 92% 30.02 in 4.0 mi NNE 12.7 mph 17.3 mph 0.04 in Rain Rain
8:55 PM 39.7 °F 31.9 °F 37.4 °F 91% 29.97 in 10.0 mi North 13.8 mph 25.3 mph 0.10 in Rain Rain
9:15 PM 39.2 °F 29.8 °F 37.0 °F 92% 29.94 in 10.0 mi NNE 18.4 mph 27.6 mph 0.02 in Rain Light Rain
9:55 PM 37.9 °F 30.5 °F 35.8 °F 92% 30.00 in 5.0 mi North 11.5 mph 23.0 mph 0.14 in Rain Heavy Rain
10:15 PM 37.8 °F 30.7 °F 35.4 °F 91% 30.02 in 5.0 mi North 10.4 mph 16.1 mph 0.03 in Rain Light Rain
10:55 PM 34.5 °F 27.3 °F 32.7 °F 93% 30.01 in 4.0 mi NNE 9.2 mph - 0.11 in Snow Light Snow